Tracking 29892 objects as of 21-Nov-2024
HD Live streaming from Space Station
objects crossing your sky now

QIANFAN-6

Track QIANFAN-6 now!
10-day predictions


NORAD ID: 60384
Int'l Code: 2024-140F
Perigee: 931.5 km
Apogee: 949.8 km
Inclination: 89.0 °
Period: 103.7 minutes
Semi major axis: 7311 km
RCS: Unknown
Launch date: August 6, 2024
Source: People's Republic of China (PRC)
Launch site: Taiyaun Space Center, China (TSC)
Your satellite tracking list
Your tracking list is empty




NASA's NSSDC Master Catalog

Two Line Element Set (TLE):
1 60384U 24140F   24326.10206181  .00000104  00000-0  75465-4 0  9994
2 60384  88.9870 339.0099 0012527 224.9528 135.0631 13.88613308 15157
Source of the keplerian elements: AFSPC